Temp
63 63 63 62 63 63 63 63 63 63 63 63 63 63 63 63 64 86 88 97 93 80 85 99 98 99 100 95 98 99 67 63 62 77 86 85 77 97 101 98 100 101 97 97 99
62 62 62 62 62 63 62 63 63 63 63 63 63 63 63 63 77 88 97 85 81 82 97 97 93 97 92 93 95 90 64 65 76 79 86 98 95 99 97 95 94 95 98 98 99
62 62 62 62 62 62 62 62 62 62 62 62 63 63 63 66 85 98 84 82 82 86 104 104 101 97 90 94 94 92 66 73 81 87 91 97 88 102 96 92 94 91 92 95 96
62 62 62 62 62 62 62 62 62 62 62 62 63 63 63 78 79 100 84 82 82 100 102 102 98 92 88 87 96 88 87 81 79 83 101 96 94 100 94 92 100 97 96 95 95
61 61 61 61 61 61 61 61 61 61 61 62 62 63 77 85 90 105 84 84 94 97 97 99 94 93 87 91 86 90 95 81 86 102 101 97 89 99 92 80 100 99 96 95 95
61 61 61 61 61 61 61 61 61 61 61 62 63 62 77 79 106 104 102 96 101 97 98 101 97 100 93 93 91 86 87 87 100 101 101 97 99 100 100 102 98 96 95 96 96
61 60 60 60 60 60 60 60 60 60 61 62 63 72 81 86 108 112 110 101 103 101 98 103 105 99 98 92 99 95 84 95 97 99 98 101 94 95 103 102 96 95 95 96 97
60 60 60 60 60 60 60 59 60 61 62 63 64 77 78 103 108 104 109 108 106 106 103 106 107 102 98 99 76 77 91 83 92 98 100 98 84 97 103 101 95 95 95 95 97
60 60 60 60 59 59 59 59 60 62 64 66 70 79 82 101 99 106 109 103 106 106 105 108 106 98 98 88 84 87 79 80 75 88 97 92 79 94 103 101 95 95 95 95 96
60 59 59 59 59 59 58 59 65 66 73 82 86 81 90 91 102 105 109 108 103 102 99 98 96 90 90 85 72 79 73 73 66 76 77 85 82 94 100 100 96 96 95 95 96
59 59 59 59 59 58 60 77 80 73 81 84 87 86 95 103 109 103 107 104 102 98 87 94 85 80 85 88 81 79 74 66 68 75 74 76 87 92 99 100 97 97 95 95 96
59 59 59 58 58 58 60 74 88 90 78 88 90 93 98 103 95 101 108 95 93 86 91 87 80 89 92 90 80 81 72 70 71 76 74 74 71 95 98 99 99 98 96 96 97
59 58 58 58 58 63 73 82 95 94 78 84 92 91 93 99 93 96 102 97 90 86 87 83 88 93 90 82 76 77 71 69 64 64 71 68 67 87 97 100 101 101 99 99 97
58 58 57 56 59 80 82 93 97 95 70 79 86 91 97 97 90 102 105 98 92 85 87 87 93 89 86 82 79 66 71 67 65 56 53 77 63 86 92 94 97 99 99 99 99
58 57 57 56 65 76 90 95 95 90 56 90 90 105 98 91 93 94 104 98 87 87 89 83 88 88 82 83 84 77 72 67 61 58 57 61 74 86 93 89 93 98 99 100 101
57 57 56 65 65 76 89 91 88 68 59 84 91 88 89 91 91 97 95 101 98 90 91 89 97 94 92 92 83 75 68 64 63 57 52 70 76 79 88 90 94 99 100 101 102
57 56 56 71 79 90 91 84 67 61 85 82 84 88 86 85 87 89 87 86 82 76 77 86 88 94 97 78 82 79 71 63 63 66 62 81 81 88 96 97 98 98 100 103 104
56 54 63 72 85 86 84 73 58 75 77 90 89 88 82 87 86 87 85 81 89 86 81 76 74 88 93 84 75 77 70 59 54 64 71 83 67 87 90 94 95 103 104 104 104
54 80 78 84 84 87 76 63 67 75 85 84 87 81 82 86 87 84 83 84 87 88 79 78 79 94 93 95 85 71 62 66 67 66 64 73 82 85 85 84 91 94 104 103 105
65 78 87 91 88 81 70 61 74 84 87 86 76 82 77 83 83 84 82 89 88 92 94 86 76 88 90 94 82 75 70 61 66 55 55 69 72 59 75 77 84 88 99 104 106
69 76 86 91 88 75 66 71 77 86 87 80 78 78 80 82 85 84 84 89 93 92 94 90 79 77 84 85 70 66 65 69 65 60 52 49 69 80 67 65 78 96 105 103 107
76 73 88 90 71 75 71 76 71 83 88 84 84 81 79 83 81 82 83 88 97 95 87 91 86 70 76 86 92 82 72 71 66 54 55 51 59 81 76 78 75 73 104 106 108
68 79 90 88 67 73 80 81 83 82 81 81 80 84 85 80 75 81 84 95 97 94 88 92 83 73 64 70 79 81 73 76 78 68 61 57 64 76 75 78 76 67 70 92 99
70 73 80 81 81 75 74 75 75 85 83 83 81 84 81 79 83 78 82 91 95 95 80 89 87 80 64 66 74 70 77 83 81 66 66 64 71 65 66 73 73 67 67 68 95
75 73 77 68 73 74 76 74 72 72 83 84 79 79 78 74 77 77 83 86 91 88 90 91 80 84 86 79 76 75 70 68 81 80 72 74 73 65 65 72 73 75 72 72 93
66 64 71 68 73 73 69 72 72 75 77 75 75 79 81 75 78 75 80 83 82 90 88 92 79 84 81 81 71 63 64 63 80 78 82 83 82 79 77 75 74 77 68 66 91
73 72 68 62 71 71 73 72 74 76 77 79 78 75 75 78 82 83 84 84 84 82 83 86 83 79 73 84 71 62 70 73 75 78 81 78 86 78 70 71 73 80 74 67 89
MSLP
1014.98 1014.57 1014.18 1013.92 1013.46 1012.93 1012.51 1012.09 1011.69 1011.33 1010.97 1010.53 1010.02 1009.61 1009.05 1008.38 1007.22 1005.88 1003.95 1001.55 1001.66 1002.16 1002.36 1001.79 1001.56 1000.88 1000.84 1000.37 1000.21 1000.24 1001.75 1003.05 1003.34 999.85 997.55 997.36 997.94 996.76 996.63 996.84 997.35 998.08 999.24 1001.12 1002.74
1015.02 1014.66 1014.33 1013.95 1013.45 1012.93 1012.45 1011.99 1011.55 1011.17 1010.87 1010.49 1009.89 1009.42 1009.08 1008.48 1006.70 1003.82 1001.02 1000.85 1001.20 1001.58 1001.73 1000.89 1000.65 1000.45 1000.30 999.75 999.40 999.47 1002.58 1003.46 1003.47 1002.08 998.21 995.84 996.08 995.67 996.07 996.81 997.75 998.88 1000.24 1001.72 1002.65
1015.07 1014.73 1014.37 1013.90 1013.40 1012.94 1012.46 1011.98 1011.48 1011.04 1010.66 1010.37 1009.85 1009.17 1008.83 1008.43 1005.16 1000.02 1000.00 1000.42 1000.93 1001.19 1000.59 1000.09 999.94 999.97 999.88 999.37 998.57 998.95 1001.45 1001.29 999.12 999.94 996.79 995.58 995.90 995.13 995.44 996.01 997.37 999.01 1000.55 1001.81 1002.63
1015.12 1014.69 1014.24 1013.73 1013.29 1012.87 1012.40 1011.90 1011.45 1011.05 1010.57 1010.22 1009.77 1009.06 1008.26 1007.50 1003.29 1000.15 1000.42 1000.80 1001.07 1000.97 1000.50 999.43 999.40 999.33 999.21 998.65 997.93 997.97 999.16 1000.60 999.84 997.46 995.60 995.17 994.99 994.33 995.99 995.78 997.32 998.99 1000.43 1001.54 1002.42
1015.04 1014.59 1014.13 1013.66 1013.19 1012.76 1012.26 1011.75 1011.29 1010.84 1010.43 1010.10 1009.74 1009.27 1007.46 1005.05 1001.45 1000.16 1000.60 1000.97 1001.33 1001.07 1000.13 998.99 998.91 998.68 998.21 997.84 998.12 997.19 997.41 998.11 996.92 995.83 995.25 994.87 995.16 994.24 995.93 998.19 998.58 999.16 1000.32 1001.29 1002.10
1014.99 1014.52 1014.06 1013.56 1013.01 1012.47 1011.96 1011.47 1010.97 1010.51 1010.15 1009.81 1009.55 1009.34 1007.67 1003.52 999.54 999.86 999.89 1000.64 1000.13 1000.32 999.64 998.61 998.15 997.91 997.67 997.18 996.89 997.73 997.46 997.71 995.64 994.52 994.40 994.33 994.03 994.43 995.14 996.62 998.35 999.16 1000.09 1001.00 1001.66
1014.85 1014.42 1013.93 1013.41 1012.85 1012.20 1011.60 1011.02 1010.53 1010.05 1009.63 1009.34 1009.21 1008.69 1005.75 1001.34 998.77 998.31 998.04 999.10 999.43 999.27 998.79 998.19 997.49 997.11 996.92 996.94 996.63 996.75 997.18 996.04 995.21 994.39 993.71 994.36 994.06 994.03 994.52 995.81 997.47 998.93 999.87 1000.63 1001.27
1014.73 1014.22 1013.71 1013.15 1012.53 1011.92 1011.23 1010.55 1009.87 1009.30 1008.94 1008.76 1008.72 1007.60 1003.27 999.61 998.89 998.77 997.91 997.38 998.33 998.46 998.53 997.73 997.19 996.69 996.41 996.68 998.45 998.87 996.94 996.15 994.77 994.33 993.88 994.15 994.00 993.66 994.45 995.47 996.91 998.41 999.33 1000.13 1000.79
1014.60 1014.07 1013.47 1012.89 1012.27 1011.61 1010.81 1009.82 1008.84 1008.36 1008.06 1008.19 1007.97 1005.78 1001.03 997.84 998.00 997.71 997.37 997.08 996.83 997.51 997.85 997.30 996.58 996.31 996.47 997.13 997.82 997.93 997.31 996.67 996.84 995.87 994.42 994.61 995.07 994.77 994.11 995.13 996.36 997.69 998.75 999.69 1000.34
1014.44 1013.87 1013.24 1012.60 1012.01 1011.30 1010.33 1008.53 1007.08 1007.63 1006.97 1006.54 1005.20 1003.83 999.32 996.86 996.47 996.56 996.53 996.54 996.11 996.54 996.85 996.66 996.35 996.32 996.47 996.49 996.86 997.13 998.21 999.27 998.63 997.18 999.44 996.93 995.71 994.84 994.32 994.70 995.85 996.92 998.05 999.06 999.77
1014.16 1013.55 1012.92 1012.20 1011.61 1011.19 1010.13 1007.06 1005.93 1005.85 1004.53 1001.84 1000.33 999.09 996.06 995.64 995.28 995.53 995.85 996.00 995.76 995.92 995.83 995.98 996.23 995.70 995.71 995.90 997.55 997.69 1000.06 1001.81 1002.18 1000.58 1002.91 999.39 996.13 994.92 994.23 994.21 995.10 996.13 997.29 998.33 999.10
1013.91 1013.31 1012.62 1011.75 1011.02 1010.79 1010.73 1006.84 1002.61 1001.96 1001.09 1000.16 999.13 997.91 996.61 995.53 994.82 994.44 994.97 995.38 995.32 995.08 995.47 995.58 995.04 995.28 995.46 995.95 997.64 998.57 1000.90 1003.07 1003.93 1002.21 1002.85 1000.39 998.84 994.47 993.86 993.60 994.15 995.16 996.43 997.55 998.42
1013.59 1012.86 1012.19 1011.33 1010.20 1009.15 1007.24 1004.56 1002.75 1002.28 1000.45 997.95 996.80 996.17 995.79 995.54 994.36 993.87 994.29 994.59 994.69 994.71 994.53 994.32 994.03 994.51 994.84 996.51 998.07 999.96 1001.83 1003.47 1005.79 1003.88 1002.70 1002.18 999.99 995.21 993.30 993.10 993.46 994.26 995.54 996.64 997.50
1013.19 1012.56 1011.91 1010.96 1010.02 1006.75 1004.55 1002.78 1002.17 1002.08 999.61 995.10 993.70 993.59 994.30 994.71 993.91 993.86 993.45 994.03 994.30 994.15 994.39 993.80 993.76 993.57 994.32 995.38 997.49 1000.41 1003.39 1004.10 1006.23 1006.78 1005.37 1000.66 998.70 993.95 992.41 992.50 992.72 993.51 994.54 995.56 996.59
1012.58 1012.03 1011.54 1011.41 1009.35 1006.11 1003.45 1003.04 1002.67 1001.67 997.57 990.30 990.91 991.09 992.46 993.12 993.43 993.05 993.25 993.33 993.27 993.59 993.93 993.17 992.96 992.78 993.79 995.49 996.54 998.75 1001.12 1004.36 1006.71 1007.14 1006.06 1002.12 996.51 992.22 991.27 991.70 991.98 992.68 993.53 994.47 995.58
1011.89 1011.44 1010.99 1009.45 1009.01 1005.69 1004.29 1003.68 1002.69 1000.51 994.81 990.60 990.60 991.05 991.60 992.11 992.58 992.06 992.76 992.85 993.29 993.38 993.03 992.52 992.24 992.07 992.39 994.13 996.10 1001.48 1002.35 1004.16 1004.76 1004.97 1003.83 998.54 994.25 991.46 990.07 990.45 991.13 991.84 992.54 993.39 994.54
1011.17 1010.58 1010.66 1008.53 1005.44 1004.00 1003.87 1003.30 1001.25 997.62 992.88 990.44 990.19 990.72 991.15 991.17 991.79 991.95 991.92 992.04 992.15 992.53 992.02 991.78 991.37 991.51 991.86 994.06 996.82 999.61 999.97 1001.96 1001.84 1000.99 998.90 995.34 992.53 989.75 988.92 989.53 990.36 991.13 991.73 992.54 993.56
1010.07 1009.43 1007.85 1007.35 1005.09 1004.97 1003.98 1002.59 999.47 994.89 992.94 990.49 989.47 989.54 990.35 990.46 990.99 991.36 991.07 991.29 991.50 991.62 991.47 991.11 990.47 990.73 991.87 992.93 996.62 997.80 1000.04 1001.84 1000.87 999.24 996.77 994.43 993.29 989.99 990.69 990.59 991.06 990.67 990.91 991.79 992.67
1009.10 1006.53 1006.02 1004.58 1005.31 1004.31 1003.39 1000.95 997.56 994.75 992.46 991.05 990.04 989.66 989.33 989.69 989.72 990.53 990.40 990.09 990.55 990.95 990.53 990.10 989.61 989.54 991.04 991.96 994.23 997.77 999.74 1002.32 1000.27 1000.75 999.42 996.22 993.52 991.63 992.54 990.88 990.93 991.39 990.51 990.81 991.52
1008.98 1005.63 1002.99 1003.28 1004.41 1004.10 1002.49 999.85 997.12 995.08 993.58 992.52 991.41 990.28 989.62 988.98 988.91 989.00 989.44 989.26 989.41 989.91 990.27 989.69 989.68 989.81 991.55 992.06 994.97 996.59 999.61 1001.80 1001.00 1001.38 1000.28 997.21 995.45 995.63 995.93 993.14 991.96 991.17 989.94 989.71 990.32
1008.00 1004.23 1002.90 1003.21 1003.61 1003.01 1000.77 998.71 997.03 995.35 994.40 993.60 992.81 991.58 990.55 989.06 988.28 988.12 988.14 988.55 988.33 988.85 989.49 989.75 990.59 990.36 991.88 991.10 994.33 997.74 998.94 1000.09 1001.57 1002.14 1001.58 1000.55 996.91 996.99 999.21 998.35 998.27 992.07 989.29 989.30 989.25
1006.60 1002.83 1002.69 1002.93 1002.63 1000.86 999.47 998.03 996.93 995.34 994.33 993.82 993.57 993.01 991.66 989.91 988.99 988.25 987.55 987.44 987.66 988.05 988.16 988.96 989.69 991.53 991.69 992.54 992.14 994.35 996.53 997.52 999.37 1001.62 1001.99 1002.35 997.85 998.04 999.41 999.31 997.62 997.24 989.97 989.14 989.07
1007.55 1002.75 1001.76 1001.96 1000.89 999.19 997.60 996.57 995.93 995.16 994.90 994.48 993.84 993.22 992.31 991.41 990.74 989.74 988.52 987.28 986.75 987.17 987.43 988.10 988.83 990.17 994.07 993.62 994.19 993.92 995.31 995.82 996.53 998.75 999.63 999.89 998.13 997.40 998.68 998.65 999.15 998.64 994.08 992.42 991.07
1007.98 1002.59 1001.32 1001.55 1000.67 999.74 998.17 997.08 996.30 995.51 994.84 994.71 994.33 993.65 992.99 992.36 991.76 990.91 989.71 988.21 987.42 986.96 987.49 987.55 987.69 988.38 989.87 992.61 994.47 994.65 994.31 994.33 994.45 995.63 996.63 997.23 996.48 997.12 997.50 999.81 999.23 998.63 997.58 997.64 992.50
1007.35 1004.31 1003.20 1001.79 1000.46 1000.13 998.99 998.35 997.46 996.39 994.95 994.49 994.38 994.21 993.57 992.97 992.39 991.79 990.96 989.52 988.45 987.74 987.68 987.49 987.18 987.80 988.26 990.27 993.23 994.13 995.14 995.39 992.81 992.80 993.40 994.27 995.81 996.97 998.77 1000.54 1001.11 1001.54 1000.59 998.24 993.93
1009.04 1008.00 1006.06 1004.34 1002.44 1000.91 999.68 998.61 997.65 996.86 996.07 995.40 994.88 994.46 993.81 993.54 993.03 992.39 991.95 990.60 989.51 988.49 987.83 987.67 987.27 987.75 988.21 990.07 992.24 993.88 995.79 996.31 993.36 992.90 991.95 992.61 993.49 995.32 996.89 997.70 998.49 1000.07 1000.60 1000.76 995.62
1010.26 1009.64 1008.17 1005.37 1003.07 1001.21 999.83 998.96 997.95 997.70 997.26 996.91 996.25 995.80 994.58 993.99 994.14 993.77 993.46 992.58 991.41 990.10 988.43 987.51 987.47 987.77 988.02 988.69 991.35 993.89 995.29 993.68 993.23 992.42 992.10 991.20 991.90 994.31 995.93 995.88 996.48 997.70 999.69 999.16 996.20
Wind_Speed
18 18 17 18 17 18 18 18 19 19 18 19 20 18 19 20 22 9 13 11 9 21 7 12 15 14 10 13 14 14 6 7 10 17 10 33 26 7 5 12 14 5 24 25 26
18 18 18 18 18 18 19 19 19 19 19 19 20 19 18 18 13 17 18 11 15 17 14 15 15 13 10 12 8 4 4 5 14 15 20 15 9 17 14 14 14 20 24 27 26
18 18 18 18 18 19 19 19 19 19 19 19 19 20 19 19 13 18 9 15 19 19 18 16 15 12 12 13 15 10 6 9 29 20 29 8 15 9 14 16 20 23 24 26 25
17 18 19 19 19 19 20 20 20 19 19 19 19 20 22 7 8 8 10 11 13 18 20 18 15 15 15 15 17 15 16 20 9 35 7 2 14 11 22 5 25 25 25 26 25
18 19 19 19 20 20 21 21 21 20 20 18 17 17 13 10 20 4 10 11 13 17 20 20 17 16 17 18 11 18 16 22 35 15 6 13 20 7 21 12 23 24 25 25 23
19 18 20 20 20 20 21 21 21 21 21 19 16 15 8 19 20 15 15 13 15 20 21 23 15 18 16 19 18 6 17 27 15 10 9 10 7 7 22 28 24 22 23 23 23
19 19 20 21 21 22 22 22 23 23 22 20 14 8 13 24 18 8 18 17 17 21 23 24 21 20 19 20 15 23 19 17 17 17 13 12 12 13 17 20 22 20 20 21 21
20 20 20 21 22 23 23 24 26 25 22 17 9 10 13 15 22 28 23 17 19 20 23 22 22 23 24 9 13 26 16 16 17 19 13 15 10 8 15 15 21 20 19 20 21
20 21 21 22 23 24 24 27 30 24 17 11 9 11 17 12 23 23 23 21 20 21 20 23 24 20 18 17 17 21 15 12 13 17 14 7 5 10 16 15 20 19 19 19 19
20 21 21 21 21 22 25 31 19 9 10 11 13 10 18 19 20 21 20 21 18 21 23 26 13 15 16 18 14 18 11 14 9 13 27 3 9 12 13 18 18 19 19 19 20
22 22 22 21 22 20 19 10 7 8 13 15 15 18 25 19 16 20 21 21 21 19 21 20 17 19 23 16 11 14 15 9 1 30 15 13 19 23 17 19 20 19 19 19 20
21 21 22 23 23 20 12 8 13 12 11 25 26 25 25 24 16 15 22 24 24 22 23 21 22 23 23 6 2 2 5 10 9 24 11 19 28 21 18 19 20 20 21 21 21
22 22 22 24 27 14 12 16 19 15 11 20 25 29 26 24 18 17 21 25 22 23 23 24 24 24 25 12 5 3 2 5 7 23 24 26 30 24 20 18 19 20 21 21 22
22 22 22 22 11 10 12 5 7 10 9 15 28 30 26 27 25 20 22 25 22 27 25 24 24 23 17 19 17 11 6 11 15 3 14 24 14 22 22 19 20 18 21 22 22
23 22 19 9 14 8 9 10 8 6 9 0 22 8 30 29 25 23 25 24 28 26 19 24 27 26 18 30 18 9 21 15 6 14 20 38 18 18 24 21 21 20 21 22 22
25 22 20 8 9 15 16 11 8 8 14 4 12 10 20 27 27 21 25 23 23 26 28 25 25 26 23 13 10 21 18 12 22 22 13 32 25 18 21 20 22 21 22 22 23
27 24 13 9 3 6 8 8 8 11 10 6 17 15 18 22 26 29 27 26 23 24 25 28 27 22 19 7 17 21 13 7 7 12 17 25 21 6 30 26 22 22 23 21 21
31 26 9 10 6 9 7 8 11 13 21 21 3 20 16 19 23 27 25 24 26 28 20 23 23 26 21 22 24 13 11 7 10 10 14 20 13 11 7 8 1 18 22 22 24
32 6 6 8 10 6 7 11 10 16 15 15 11 13 16 20 18 25 29 25 26 26 27 24 28 22 27 18 19 4 3 5 3 5 6 9 13 5 4 3 7 14 21 24 24
10 10 7 5 10 7 8 17 20 24 23 12 16 16 11 15 20 23 25 28 25 28 29 25 17 14 24 17 13 10 14 10 4 3 7 11 18 13 4 6 12 21 26 25 25
7 7 7 7 7 7 10 14 19 21 19 6 15 20 22 22 17 21 20 26 24 26 27 27 8 20 9 17 26 13 9 5 6 4 3 7 6 16 12 20 25 14 17 25 26
8 6 8 8 8 8 11 17 18 21 18 12 10 18 22 18 11 13 16 19 22 25 28 27 23 16 21 25 20 24 18 16 9 9 4 5 16 9 10 8 22 34 17 16 15
8 10 8 8 8 10 13 17 14 17 12 16 18 16 20 16 10 13 18 18 16 23 26 22 21 13 11 11 22 8 21 21 19 8 12 9 10 6 14 21 19 24 26 16 11
8 7 5 8 11 15 15 14 15 14 16 12 16 20 18 18 14 16 18 13 16 13 4 19 23 20 13 17 14 4 21 22 20 10 10 15 11 4 14 14 15 25 30 39 11
6 9 15 9 15 19 18 15 17 18 20 8 11 17 17 16 17 17 19 21 20 13 14 16 23 25 26 28 18 13 13 32 23 19 16 16 18 15 12 17 13 4 21 34 5
8 8 11 16 19 20 15 16 17 16 17 15 10 15 15 17 18 18 12 17 15 15 17 18 16 19 24 24 18 10 5 35 16 22 18 21 12 15 20 12 16 11 3 27 6
8 10 8 11 17 16 12 17 14 17 13 13 14 17 20 11 15 17 16 17 21 19 15 19 15 17 19 21 19 10 23 8 14 27 24 19 18 20 11 19 18 9 8 29 11
Wind_Direction
349 348 347 342 338 338 338 334 333 332 333 330 326 324 323 322 308 257 259 258 186 174 221 191 219 228 244 263 266 254 44 41 327 327 38 126 171 179 100 124 111 28 136 140 148
348 345 342 337 336 335 333 331 330 329 330 329 324 323 322 325 294 271 255 155 142 167 200 200 212 223 245 272 247 191 104 227 225 270 280 101 18 125 136 122 114 98 117 138 153
345 341 338 336 335 332 329 328 327 326 326 326 324 321 319 316 284 261 79 144 163 178 218 213 220 228 248 259 263 235 146 294 295 271 235 96 136 191 151 160 137 133 138 151 155
342 339 337 336 333 330 328 325 323 321 321 322 322 321 313 265 278 112 151 161 178 194 230 221 228 226 237 253 247 250 176 177 223 279 310 117 344 138 102 316 129 139 147 156 161
341 338 336 334 330 327 325 322 320 318 315 316 318 323 318 243 247 209 157 164 182 211 225 224 223 236 243 258 340 267 277 164 241 208 211 130 209 83 105 114 129 141 152 162 166
338 336 334 331 327 324 322 318 315 312 309 308 311 313 247 262 262 154 169 168 193 203 222 234 225 237 247 261 257 45 339 280 287 269 168 265 232 159 136 136 135 145 158 166 170
336 334 332 329 325 322 319 315 310 306 302 301 298 270 260 246 282 266 188 188 210 207 222 235 233 240 234 250 297 300 213 274 260 262 196 195 221 175 142 137 137 154 165 170 174
334 331 328 326 322 320 316 310 303 299 296 290 267 237 258 263 243 259 274 216 190 219 230 231 236 244 264 292 47 302 256 264 251 213 217 190 215 224 137 164 147 165 170 173 178
332 330 327 324 322 319 313 305 296 289 281 262 228 227 261 240 230 240 225 246 206 214 217 241 238 244 257 255 241 237 253 263 347 312 197 139 245 264 153 179 157 172 171 176 180
331 330 326 321 316 316 315 294 278 289 221 223 259 238 242 245 227 218 228 224 226 211 209 230 240 244 243 252 251 253 6 45 355 297 352 318 200 227 181 173 171 177 172 179 181
330 327 321 316 314 317 323 317 208 193 229 214 196 212 289 207 217 208 210 213 230 215 217 212 225 231 236 245 54 51 27 102 233 273 300 259 207 209 193 180 174 179 175 180 182
325 322 316 313 310 310 293 257 289 340 286 225 253 236 252 280 218 233 198 205 218 215 214 223 219 235 241 232 169 152 7 76 315 263 274 314 300 178 186 189 173 180 175 179 181
320 319 318 314 311 284 229 262 289 314 278 265 241 232 232 244 243 214 211 201 214 215 221 224 230 216 243 155 103 303 175 12 53 319 301 296 274 233 182 192 169 180 172 180 182
318 317 318 321 289 328 268 257 257 255 276 253 213 232 225 222 232 233 211 210 216 222 228 236 233 250 232 181 145 154 137 60 49 321 255 311 212 201 171 192 169 178 172 182 182
317 316 317 304 310 277 350 313 335 257 273 79 196 192 201 208 218 216 243 199 222 218 224 231 240 236 192 257 168 206 141 123 281 266 254 274 242 200 169 185 177 181 175 182 182
318 318 322 226 220 251 300 312 259 234 243 180 122 173 192 204 213 232 209 229 221 228 229 235 239 240 242 187 147 134 143 235 188 204 229 251 268 219 176 177 181 186 175 178 179
317 313 298 299 246 347 225 243 222 241 241 219 166 201 209 204 208 221 197 216 210 219 229 236 234 240 256 87 345 166 210 204 183 227 240 252 241 247 183 171 182 187 175 177 172
317 310 218 235 288 242 261 221 247 255 238 292 224 181 194 213 203 212 224 210 212 222 220 230 228 203 242 163 190 224 157 303 213 232 236 237 304 202 182 140 304 197 186 177 176
312 237 224 183 213 253 237 222 242 256 343 346 301 264 199 204 212 203 227 209 216 218 229 227 235 223 200 250 133 151 98 307 100 48 283 255 269 83 258 16 317 258 205 180 183
311 287 224 118 167 228 233 250 265 274 303 309 302 295 238 241 217 192 212 231 207 217 229 240 242 226 206 203 102 140 135 213 75 209 243 255 282 150 285 41 294 273 209 184 184
259 247 95 151 183 226 239 247 255 263 266 306 281 289 300 277 260 221 209 224 217 216 218 237 180 276 277 228 132 132 152 93 97 139 155 325 256 72 41 344 308 261 231 184 186
299 280 132 174 214 227 248 253 261 283 301 299 270 280 286 312 304 303 240 217 215 218 225 219 243 198 273 271 194 167 169 159 199 178 161 151 275 8 5 309 8 342 213 177 183
291 292 156 205 259 261 276 243 241 273 285 278 275 258 285 299 305 292 290 286 248 217 221 225 224 220 183 320 296 206 168 185 181 143 180 188 239 354 337 349 339 325 359 348 56
281 309 147 204 254 270 277 298 304 293 267 260 269 280 261 264 269 281 293 285 295 277 259 237 231 230 194 191 242 264 277 224 206 183 178 220 254 339 321 317 345 342 343 315 113
263 330 349 301 318 332 326 315 297 294 301 224 276 244 269 260 263 262 270 280 291 299 292 274 238 246 254 188 182 202 267 294 224 216 216 206 211 165 171 232 247 297 289 309 159
351 337 335 297 286 277 268 263 260 269 275 315 268 308 258 239 252 260 307 285 290 277 256 256 256 250 252 171 176 126 206 259 294 299 215 249 239 158 173 180 241 223 306 304 151
5 336 297 296 292 286 309 339 318 329 318 299 306 303 289 11 350 331 319 298 296 304 300 244 241 244 252 257 145 153 216 253 280 281 283 233 248 157 192 180 196 215 121 265 187